Radiation Dose at Monitoring Post of Fukushima Daini Nuclear Power Station
Date,Time,MP-1(microSv/h),MP-2(microSv/h),MP-3(microSv/h),MP-4(microSv/h),MP-5(microSv/h),MP-6(microSv/h),MP-7(microSv/h),Wind Direction,Wind Velocity(m/s),Rain
2018/04/25,00:00,0.316,0.199,0.321,0.308,0.297,0.163,0.100,north-northwest,4.3,Yes
2018/04/25,00:10,0.318,0.200,0.323,0.307,0.299,0.163,0.099,north,4.9,Yes
2018/04/25,00:20,0.317,0.200,0.321,0.308,0.297,0.163,0.100,north-northwest,5.2,Yes
2018/04/25,00:30,0.317,0.199,0.321,0.307,0.300,0.162,0.099,north,5.9,Yes
2018/04/25,00:40,0.316,0.199,0.323,0.307,0.299,0.163,0.099,-,CALM,Yes
2018/04/25,00:50,0.315,0.198,0.320,0.305,0.297,0.162,0.099,-,CALM,Yes
2018/04/25,01:00,0.315,0.200,0.321,0.306,0.300,0.162,0.099,-,CALM,Yes
2018/04/25,01:10,0.315,0.198,0.321,0.307,0.298,0.162,0.098,-,CALM,Yes
2018/04/25,01:20,0.315,0.197,0.319,0.306,0.298,0.162,0.099,-,CALM,Yes
2018/04/25,01:30,0.316,0.198,0.322,0.305,0.297,0.160,0.098,-,CALM,Yes
2018/04/25,01:40,0.314,0.197,0.319,0.306,0.299,0.161,0.098,-,CALM,Yes
2018/04/25,01:50,0.314,0.199,0.321,0.305,0.299,0.162,0.099,-,CALM,Yes
2018/04/25,02:00,0.314,0.199,0.321,0.307,0.296,0.162,0.099,-,CALM,Yes
2018/04/25,02:10,0.316,0.198,0.318,0.304,0.300,0.162,0.098,-,CALM,Yes
2018/04/25,02:20,0.314,0.199,0.319,0.306,0.298,0.162,0.100,-,CALM,Yes
2018/04/25,02:30,0.314,0.198,0.319,0.305,0.298,0.162,0.099,-,CALM,Yes
2018/04/25,02:40,0.316,0.198,0.317,0.303,0.298,0.162,0.098,-,CALM,Yes
2018/04/25,02:50,0.313,0.199,0.320,0.305,0.298,0.161,0.099,-,CALM,Yes
2018/04/25,03:00,0.314,0.197,0.319,0.304,0.300,0.162,0.099,-,CALM,Yes
2018/04/25,03:10,0.312,0.197,0.318,0.305,0.297,0.162,0.099,-,CALM,Yes
2018/04/25,03:20,0.313,0.197,0.317,0.306,0.298,0.162,0.099,-,CALM,Yes
2018/04/25,03:30,0.315,0.197,0.318,0.303,0.297,0.161,0.098,-,CALM,Yes
2018/04/25,03:40,0.314,0.199,0.318,0.305,0.296,0.160,0.099,-,CALM,Yes
2018/04/25,03:50,0.313,0.198,0.318,0.303,0.300,0.162,0.099,-,CALM,Yes
2018/04/25,04:00,0.313,0.197,0.315,0.302,0.296,0.161,0.100,-,CALM,Yes
2018/04/25,04:10,0.313,0.197,0.316,0.303,0.299,0.162,0.100,-,CALM,Yes
2018/04/25,04:20,0.312,0.197,0.315,0.301,0.297,0.161,0.099,north-northwest,8.8,Yes
2018/04/25,04:30,0.311,0.197,0.316,0.299,0.296,0.161,0.100,north-northwest,8.8,Yes
2018/04/25,04:40,0.311,0.198,0.316,0.301,0.297,0.161,0.099,north-northwest,7.8,Yes
2018/04/25,04:50,0.312,0.197,0.313,0.300,0.297,0.160,0.099,north-northwest,9.5,Yes
2018/04/25,05:00,0.310,0.197,0.314,0.300,0.296,0.161,0.100,north-northwest,9.2,Yes
2018/04/25,05:10,0.312,0.199,0.315,0.299,0.298,0.161,0.099,north-northwest,8.3,Yes
2018/04/25,05:20,0.309,0.199,0.313,0.299,0.295,0.161,0.100,north,10.7,Yes
2018/04/25,05:30,0.309,0.196,0.314,0.298,0.296,0.160,0.099,north-northwest,8.5,Yes
2018/04/25,05:40,0.309,0.197,0.313,0.298,0.298,0.161,0.100,north-northwest,8.1,Yes
2018/04/25,05:50,0.310,0.196,0.312,0.296,0.295,0.160,0.099,north-northwest,9.0,Yes
2018/04/25,06:00,0.306,0.196,0.312,0.297,0.297,0.161,0.100,north-northwest,9.5,Yes
2018/04/25,06:10,0.307,0.197,0.311,0.294,0.294,0.159,0.099,north-northwest,8.2,Yes
2018/04/25,06:20,0.306,0.196,0.310,0.293,0.295,0.158,0.099,north-northwest,8.3,Yes
2018/04/25,06:30,0.306,0.197,0.312,0.295,0.295,0.159,0.099,north-northwest,8.5,Yes
2018/04/25,06:40,0.307,0.196,0.310,0.295,0.295,0.159,0.099,north-northwest,10.0,Yes
2018/04/25,06:50,0.305,0.197,0.310,0.294,0.294,0.159,0.100,north-northwest,9.2,Yes
2018/04/25,07:00,0.308,0.197,0.311,0.294,0.295,0.158,0.100,north-northwest,8.4,Yes
2018/04/25,07:10,0.306,0.195,0.310,0.294,0.295,0.159,0.101,north-northwest,7.8,Yes
2018/04/25,07:20,0.305,0.197,0.311,0.295,0.298,0.159,0.100,north-northwest,8.6,Yes
2018/04/25,07:30,0.305,0.196,0.311,0.295,0.295,0.158,0.100,north-northwest,9.8,Yes
2018/04/25,07:40,0.304,0.195,0.310,0.294,0.296,0.158,0.100,north-northwest,9.2,Yes
2018/04/25,07:50,0.304,0.196,0.311,0.294,0.295,0.159,0.100,north-northwest,8.8,Yes
2018/04/25,08:00,0.305,0.195,0.312,0.293,0.295,0.158,0.100,north-northwest,8.2,Yes
2018/04/25,08:10,0.304,0.194,0.309,0.293,0.295,0.158,0.099,north,8.5,Yes
2018/04/25,08:20,0.303,0.194,0.308,0.292,0.293,0.156,0.099,north-northwest,8.8,Yes
2018/04/25,08:30,0.303,0.194,0.309,0.291,0.293,0.157,0.099,north-northwest,8.7,Yes
2018/04/25,08:40,0.301,0.195,0.309,0.293,0.296,0.156,0.098,north-northwest,7.3,Yes
2018/04/25,08:50,0.304,0.194,0.310,0.292,0.293,0.157,0.099,north-northwest,8.4,Yes
2018/04/25,09:00,0.302,0.195,0.307,0.292,0.294,0.155,0.099,north-northwest,7.5,Yes
2018/04/25,09:10,0.303,0.195,0.309,0.294,0.294,0.157,0.099,north-northwest,8.3,Yes
2018/04/25,09:20,0.302,0.196,0.307,0.290,0.292,0.156,0.098,-,CALM,Yes
2018/04/25,09:30,0.300,0.193,0.306,0.290,0.295,0.156,0.098,-,CALM,Yes
2018/04/25,09:40,0.302,0.194,0.307,0.289,0.293,0.156,0.098,-,CALM,Yes
2018/04/25,09:50,0.299,0.192,0.306,0.288,0.292,0.154,0.097,-,CALM,Yes
2018/04/25,10:00,0.299,0.193,0.304,0.288,0.292,0.154,0.098,-,CALM,Yes
2018/04/25,10:10,0.300,0.194,0.306,0.287,0.290,0.155,0.097,-,CALM,Yes
2018/04/25,10:20,0.296,0.191,0.304,0.285,0.290,0.154,0.097,-,CALM,Yes
2018/04/25,10:30,0.299,0.192,0.304,0.289,0.291,0.155,0.098,north-northwest,8.5,Yes
2018/04/25,10:40,0.302,0.193,0.306,0.289,0.292,0.155,0.097,north-northwest,7.3,Yes
2018/04/25,10:50,0.300,0.193,0.306,0.290,0.291,0.154,0.097,north,7.5,Yes
2018/04/25,11:00,0.300,0.192,0.305,0.291,0.292,0.154,0.097,north,7.1,Yes
2018/04/25,11:10,0.300,0.193,0.307,0.289,0.292,0.155,0.097,north,6.7,Yes
2018/04/25,11:20,0.299,0.191,0.305,0.292,0.294,0.155,0.097,north,6.8,Yes
2018/04/25,11:30,0.301,0.193,0.307,0.290,0.293,0.155,0.097,-,CALM,Yes
2018/04/25,11:40,0.300,0.192,0.307,0.290,0.294,0.154,0.098,-,CALM,Yes
2018/04/25,11:50,0.301,0.192,0.307,0.293,0.293,0.155,0.098,north-northwest,6.3,Yes
2018/04/25,12:00,0.303,0.193,0.307,0.291,0.291,0.155,0.097,north,7.3,No
2018/04/25,12:10,0.301,0.192,0.307,0.292,0.295,0.155,0.097,north,7.2,No
2018/04/25,12:20,0.303,0.193,0.308,0.293,0.293,0.155,0.097,north,8.4,No
2018/04/25,12:30,0.302,0.192,0.310,0.293,0.295,0.155,0.096,north,8.8,Yes
2018/04/25,12:40,0.302,0.191,0.308,0.293,0.293,0.155,0.098,north-northwest,7.8,Yes
2018/04/25,12:50,0.303,0.193,0.307,0.293,0.291,0.154,0.097,-,CALM,Yes
2018/04/25,13:00,0.301,0.191,0.306,0.291,0.293,0.154,0.096,north,9.2,Yes
2018/04/25,13:10,0.300,0.191,0.306,0.291,0.292,0.154,0.096,-,CALM,Yes
2018/04/25,13:20,0.299,0.192,0.307,0.292,0.293,0.154,0.096,north,10.4,Yes
2018/04/25,13:30,0.300,0.193,0.307,0.293,0.294,0.154,0.096,north,11.2,No
2018/04/25,13:40,0.301,0.191,0.306,0.292,0.292,0.154,0.097,north-northwest,10.4,No
2018/04/25,13:50,0.302,0.192,0.307,0.292,0.294,0.154,0.095,north,11.2,No
2018/04/25,14:00,0.301,0.191,0.307,0.293,0.293,0.153,0.095,north-northwest,9.0,No
2018/04/25,14:10,0.302,0.192,0.307,0.292,0.292,0.155,0.095,north,11.1,No
2018/04/25,14:20,0.302,0.191,0.308,0.293,0.293,0.154,0.096,north-northwest,10.1,No
2018/04/25,14:30,0.302,0.192,0.307,0.295,0.291,0.154,0.096,north,10.3,No
2018/04/25,14:40,0.303,0.190,0.308,0.292,0.293,0.154,0.096,north-northwest,10.0,No
2018/04/25,14:50,0.302,0.192,0.308,0.294,0.291,0.154,0.095,north-northwest,10.3,No
2018/04/25,15:00,0.304,0.190,0.307,0.291,0.292,0.154,0.095,north-northwest,10.6,No
2018/04/25,15:10,0.304,0.190,0.308,0.293,0.294,0.154,0.094,north-northwest,11.1,No
2018/04/25,15:20,0.303,0.191,0.308,0.293,0.293,0.153,0.095,north,10.9,No
2018/04/25,15:30,0.303,0.189,0.308,0.294,0.293,0.153,0.095,north,10.0,No
2018/04/25,15:40,0.302,0.191,0.309,0.293,0.291,0.154,0.095,north,10.3,No
2018/04/25,15:50,0.306,0.191,0.308,0.293,0.295,0.154,0.094,north,10.6,No
2018/04/25,16:00,0.303,0.190,0.311,0.294,0.293,0.154,0.095,north,9.8,No
2018/04/25,16:10,0.306,0.193,0.308,0.293,0.297,0.154,0.095,north,7.1,No
2018/04/25,16:20,0.304,0.191,0.311,0.297,0.291,0.154,0.094,north,8.2,No
2018/04/25,16:30,0.304,0.193,0.310,0.295,0.295,0.155,0.095,north,6.9,No
2018/04/25,16:40,0.302,0.193,0.309,0.295,0.292,0.153,0.094,north,6.6,No
2018/04/25,16:50,0.304,0.190,0.309,0.294,0.293,0.155,0.095,north,6.9,No
2018/04/25,17:00,0.306,0.193,0.308,0.296,0.294,0.154,0.094,north,5.1,No
2018/04/25,17:10,0.305,0.191,0.311,0.296,0.292,0.155,0.095,north,5.5,No
2018/04/25,17:20,0.306,0.192,0.309,0.294,0.295,0.154,0.094,north,5.5,No
2018/04/25,17:30,0.305,0.191,0.310,0.296,0.293,0.154,0.095,north-northeast,7.2,No
2018/04/25,17:40,0.305,0.191,0.310,0.295,0.295,0.155,0.094,north,7.5,No
2018/04/25,17:50,0.306,0.192,0.310,0.296,0.294,0.154,0.095,north,6.2,No
2018/04/25,18:00,0.306,0.191,0.311,0.295,0.295,0.154,0.094,north-northeast,6.0,No
2018/04/25,18:10,0.307,0.192,0.310,0.296,0.296,0.154,0.095,north,7.0,No
2018/04/25,18:20,0.305,0.191,0.310,0.296,0.294,0.155,0.094,north,6.4,No
2018/04/25,18:30,0.306,0.192,0.311,0.295,0.295,0.155,0.095,north,5.9,No
2018/04/25,18:40,0.305,0.192,0.311,0.297,0.293,0.156,0.095,north,6.9,No
2018/04/25,18:50,0.306,0.191,0.311,0.295,0.296,0.155,0.094,north,5.4,No
2018/04/25,19:00,0.306,0.191,0.309,0.296,0.293,0.155,0.095,north,4.9,No
2018/04/25,19:10,0.303,0.192,0.313,0.296,0.295,0.155,0.095,north-northeast,4.9,No
2018/04/25,19:20,0.306,0.192,0.310,0.295,0.295,0.155,0.094,north,5.2,No
2018/04/25,19:30,0.305,0.192,0.312,0.298,0.293,0.155,0.095,north,3.9,No
2018/04/25,19:40,0.306,0.192,0.313,0.296,0.295,0.154,0.095,north-northeast,4.8,No
2018/04/25,19:50,0.306,0.191,0.311,0.298,0.294,0.155,0.095,north-northeast,4.7,No
2018/04/25,20:00,0.306,0.192,0.313,0.296,0.295,0.154,0.095,north,5.4,No
2018/04/25,20:10,0.307,0.191,0.311,0.297,0.294,0.155,0.095,north,4.7,No
2018/04/25,20:20,0.306,0.191,0.312,0.296,0.295,0.155,0.095,north,4.6,No
2018/04/25,20:30,0.305,0.193,0.312,0.296,0.294,0.155,0.095,north,3.9,No
2018/04/25,20:40,0.307,0.192,0.310,0.298,0.294,0.156,0.094,north,4.3,No
2018/04/25,20:50,0.305,0.193,0.312,0.294,0.295,0.156,0.094,north,4.5,No
2018/04/25,21:00,0.307,0.192,0.311,0.297,0.292,0.155,0.094,north,4.6,No
2018/04/25,21:10,0.307,0.192,0.312,0.296,0.294,0.156,0.094,north,5.3,No
2018/04/25,21:20,0.306,0.193,0.310,0.296,0.293,0.157,0.095,north-northeast,5.5,No
2018/04/25,21:30,0.306,0.193,0.311,0.298,0.295,0.156,0.095,north-northeast,6.1,No
2018/04/25,21:40,0.305,0.193,0.312,0.297,0.295,0.155,0.095,north,5.2,No
2018/04/25,21:50,0.308,0.193,0.311,0.298,0.294,0.157,0.095,north-northeast,5.4,No
2018/04/25,22:00,0.307,0.192,0.313,0.297,0.296,0.155,0.095,north-northeast,6.9,No
2018/04/25,22:10,0.307,0.193,0.313,0.297,0.293,0.156,0.095,north,6.1,No
2018/04/25,22:20,0.306,0.193,0.311,0.298,0.296,0.156,0.095,north,3.1,No
2018/04/25,22:30,0.306,0.193,0.313,0.296,0.295,0.156,0.095,north,6.1,No
2018/04/25,22:40,0.308,0.193,0.312,0.297,0.296,0.156,0.095,north,4.8,No
2018/04/25,22:50,0.306,0.193,0.313,0.298,0.295,0.156,0.096,north-northeast,3.1,No
2018/04/25,23:00,0.308,0.193,0.312,0.296,0.295,0.156,0.094,north-northeast,5.1,No
2018/04/25,23:10,0.306,0.193,0.312,0.297,0.296,0.156,0.095,north-northeast,6.0,No
2018/04/25,23:20,0.306,0.192,0.311,0.297,0.293,0.156,0.095,north-northeast,4.8,No
2018/04/25,23:30,0.307,0.192,0.310,0.298,0.296,0.155,0.095,north-northeast,4.6,No
2018/04/25,23:40,0.306,0.193,0.313,0.298,0.294,0.156,0.095,north-northeast,4.4,No
2018/04/25,23:50,0.309,0.193,0.311,0.298,0.296,0.156,0.095,north-northeast,3.4,No
